User: anonymous   Login
Location: Unspecified
(0.0000°N, 0.0000°E)
Time: 01:55:18
(UTC+00:00)
Language:

NOAA 18 - Orbit

View from above orbital plane
View from above orbital plane
View from above satellite
View from above satellite

Ground track
Ground track

The orbit data is extracted from the following two-line orbital elements,

1 28654U 05018A   21136.50161944  .00000068  00000-0  61177-4 0  9992
2 28654  98.9956 201.2359 0014354  16.9845 343.1804 14.12606089823930
Epoch (UTC): 16 May 2021 12:02:19
Eccentricity: 0.0014354
inclination: 98.9956°
perigee height: 840 km
apogee height: 861 km
right ascension of ascending node: 201.2359°
argument of perigee: 16.9845°
revolutions per day: 14.12606089
mean anomaly at epoch: 343.1804°
orbit number at epoch: 82393

The dashed part of the orbit path shows where the satellite is in the earth's shadow,  

DLR